Aktion, Greece

5:36 AM EEST on October 17, 2017 (GMT +0300)
Aktion Air Base

Weather History for LGPZ - September, 2012

Change the Weather History Date:

Saturday, September 8, 2012

  Actual Average Record
Temperature  
Mean Temperature 80 °F -  
Max Temperature 88 °F 75 °F 89 °F (2008)
Min Temperature 72 °F 62 °F 55 °F (2007)
Cooling Degree Days 15    
Growing Degree Days 30 (Base 50)    
Moisture  
Dew Point 67 °F    
Average Humidity 64    
Maximum Humidity 88    
Minimum Humidity 40    
Precipitation  
Precipitation 0.00 in - - ()
Sea Level Pressure  
Sea Level Pressure 29.97 in    
Wind  
Wind Speed 6 mph ()    
Max Wind Speed 12 mph    
Max Gust Speed -    
Visibility 6.2 miles    
Events      
Averages and records for this station are not official NWS values.
T = Trace of Precipitation, MM = Missing Value Source: Averaged Metar Reports

Daily Weather History Graph

Daily Weather History Graph

Search for Another Location

Airport or City:

Trip Planner

Search our weather history database for the weather conditions in past years. The results will help you decide how hot, cold, wet, or windy it might be!

Date:

Astronomy

Sep. 08, 2012 Rise Set
Actual Time 7:12 AM EEST 7:56 PM EEST
Civil Twilight 6:45 AM EEST 8:22 PM EEST
Nautical Twilight 6:13 AM EEST 8:54 PM EEST
Astronomical Twilight 5:40 AM EEST 9:27 PM EEST
Moon No Moon Rise 2:35 PM EEST (9/8)
Length of Visible Light 13h 37m
Length of Day
12h 43m
Waning Gibbous, 52% of the Moon is Illuminated
Sep 8
Waning Gibbous
Sep 8
Last Quarter
Sep 16
New
Sep 22
First Quarter
Sep 30
Full

Hourly Weather History & Observations

Time (EEST) Temp. Heat Index Dew Point Humidity Pressure Visibility Wind Dir Wind Speed Gust Speed Precip Events Conditions
12:50 AM 71.6 °F - 66.2 °F 83% 29.98 in 6.2 mi Calm Calm - N/A   Scattered Clouds
2:20 AM 73.4 °F - 69.8 °F 88% 29.98 in 6.2 mi ENE 4.6 mph - N/A   Scattered Clouds
2:50 AM 73.4 °F - 68.0 °F 83% 29.98 in 6.2 mi ENE 4.6 mph - N/A   Scattered Clouds
3:00 AM 73 °F - 68 °F 79% 29.99 in 6 mi ENE 4.6 mph - -   Scattered Clouds
3:50 AM 71.6 °F - 68.0 °F 88% 29.98 in 6.2 mi East 5.8 mph - N/A   Scattered Clouds
4:50 AM 75.2 °F - 68.0 °F 78% 29.98 in 6.2 mi ENE 5.8 mph - N/A   Scattered Clouds
5:50 AM 73.4 °F - 68.0 °F 83% 29.95 in 6.2 mi East 5.8 mph - N/A   Scattered Clouds
6:20 AM 73.4 °F - 68.0 °F 83% 29.95 in 6.2 mi East 5.8 mph - N/A   Scattered Clouds
7:20 AM 73.4 °F - 64.4 °F 73% 29.98 in 6.2 mi East 6.9 mph - N/A   Partly Cloudy
7:50 AM 73.4 °F - 66.2 °F 78% 29.98 in 6.2 mi East 4.6 mph - N/A   Partly Cloudy
8:20 AM 73.4 °F - 66.2 °F 78% 29.98 in 6.2 mi ESE 4.6 mph - N/A   Partly Cloudy
8:50 AM 78.8 °F - 66.2 °F 65% 29.98 in 6.2 mi East 5.8 mph - N/A   Partly Cloudy
9:00 AM 78 °F - 66 °F 59% 29.99 in 6 mi East 5.8 mph - -   Scattered Clouds
9:20 AM 78.8 °F - 66.2 °F 65% 29.98 in 6.2 mi East 4.6 mph - N/A   Partly Cloudy
9:50 AM 80.6 °F 82.3 °F 64.4 °F 58% 29.98 in - East 4.6 mph - N/A   Clear
10:20 AM 80.6 °F 82.3 °F 64.4 °F 58% 29.98 in - East 4.6 mph - N/A   Clear
10:50 AM 82.4 °F 83.9 °F 64.4 °F 54% 30.01 in - ENE 4.6 mph - N/A   Clear
11:20 AM 86.0 °F 86.6 °F 62.6 °F 45% 30.01 in 6.2 mi Calm Calm - N/A   Partly Cloudy
11:50 AM 86.0 °F 85.4 °F 59.0 °F 40% 29.98 in 6.2 mi WNW 5.8 mph - N/A   Partly Cloudy
12:20 PM 87.8 °F 87.6 °F 60.8 °F 40% 29.98 in 6.2 mi WNW 6.9 mph - N/A   Partly Cloudy
12:50 PM 86.0 °F 86.6 °F 62.6 °F 45% 29.98 in 6.2 mi WNW 8.1 mph - N/A   Partly Cloudy
1:20 PM 84.2 °F 85.6 °F 64.4 °F 51% 29.98 in 6.2 mi WNW 8.1 mph - N/A   Partly Cloudy
1:50 PM 84.2 °F 85.6 °F 64.4 °F 51% 29.98 in 6.2 mi WNW 9.2 mph - N/A   Partly Cloudy
2:20 PM 86.0 °F 89.4 °F 68.0 °F 55% 29.98 in 6.2 mi WNW 10.4 mph - N/A   Partly Cloudy
2:50 PM 87.8 °F 91.4 °F 68.0 °F 52% 29.95 in 6.2 mi WNW 11.5 mph - N/A   Partly Cloudy
3:00 PM 87 °F - 67 °F 42% 29.97 in 6 mi WNW 11.5 mph - -   Scattered Clouds
3:20 PM 86.0 °F 88.2 °F 66.2 °F 51% 29.95 in 6.2 mi WNW 11.5 mph - N/A   Partly Cloudy
3:50 PM 86.0 °F 88.2 °F 66.2 °F 51% 29.95 in 6.2 mi WNW 10.4 mph - N/A   Partly Cloudy
4:20 PM 84.2 °F 86.6 °F 66.2 °F 55% 29.95 in 6.2 mi West 10.4 mph - N/A   Partly Cloudy
4:50 PM 84.2 °F 86.6 °F 66.2 °F 55% 29.95 in 6.2 mi WNW 11.5 mph - N/A   Partly Cloudy
5:20 PM 84.2 °F 86.6 °F 66.2 °F 55% 29.95 in 6.2 mi WNW 11.5 mph - N/A   Scattered Clouds
5:50 PM 84.2 °F 88.4 °F 69.8 °F 62% 29.95 in 6.2 mi West 11.5 mph - N/A   Partly Cloudy
6:20 PM 82.4 °F 86.3 °F 69.8 °F 66% 29.95 in 6.2 mi WNW 10.4 mph - N/A   Partly Cloudy
6:50 PM 80.6 °F 83.2 °F 68.0 °F 65% 29.95 in 6.2 mi WNW 10.4 mph - N/A   Partly Cloudy
7:20 PM 80.6 °F 83.2 °F 68.0 °F 65% 29.95 in 6.2 mi WNW 8.1 mph - N/A   Partly Cloudy
7:50 PM 78.8 °F - 69.8 °F 74% 29.95 in 6.2 mi West 8.1 mph - N/A   Partly Cloudy
8:20 PM 78.8 °F - 69.8 °F 74% 29.95 in 6.2 mi West 6.9 mph - N/A   Partly Cloudy
8:50 PM 78.8 °F - 69.8 °F 74% 29.95 in 6.2 mi West 8.1 mph - N/A   Partly Cloudy
9:00 PM 79 °F - 70 °F 66% 29.95 in 6 mi West 8.1 mph - -   Scattered Clouds
9:50 PM 78.8 °F - 68.0 °F 69% 29.95 in 6.2 mi WSW 8.1 mph - N/A   Partly Cloudy
10:50 PM 78.8 °F - 68.0 °F 69% 29.95 in - WSW 8.1 mph - N/A   Clear
11:50 PM 77.0 °F - 69.8 °F 78% 29.98 in - WSW 6.9 mph - N/A   Clear